St. Paul, MN

8:44 PM CDT on June 23, 2017 (GMT -0500)
Saint Paul Downtown-Holman

Weather History for KSTP - April, 2014

Change the Weather History Date:

Thursday, April 3, 2014

  Actual Average Record
Temperature  
Mean Temperature 34 °F -  
Max Temperature 39 °F 49 °F 66 °F (2005)
Min Temperature 28 °F 31 °F 21 °F (2002)
Degree Days  
Heating Degree Days 32    
Moisture  
Dew Point 28 °F    
Average Humidity 84    
Maximum Humidity 100    
Minimum Humidity 49    
Precipitation  
Precipitation 0.33 in - - ()
Sea Level Pressure  
Sea Level Pressure 29.90 in    
Wind  
Wind Speed 9 mph (NE)    
Max Wind Speed 16 mph    
Max Gust Speed 23 mph    
Visibility 4 miles    
Events Fog , Rain , Snow    
Averages and records for this station are not official NWS values.
T = Trace of Precipitation, MM = Missing Value Source: NWS Daily Summary

Daily Weather History Graph

Daily Weather History Graph

Search for Another Location

Airport or City:

Trip Planner

Search our weather history database for the weather conditions in past years. The results will help you decide how hot, cold, wet, or windy it might be!

Date:

Astronomy

Apr. 03, 2014 Rise Set
Actual Time 6:49 AM CDT 7:42 PM CDT
Civil Twilight 6:19 AM CDT 8:12 PM CDT
Nautical Twilight 5:44 AM CDT 8:47 PM CDT
Astronomical Twilight 5:06 AM CDT 9:25 PM CDT
Moon 9:10 AM CDT (4/3) No Moon Set
Length of Visible Light 13h 52m
Length of Day
12h 53m
Waxing Crescent, 17% of the Moon is Illuminated
Apr 3
Waxing Crescent
Apr 7
First Quarter
Apr 15
Full
Apr 22
Last Quarter
Apr 29
New

Hourly Weather History & Observations

Time (CDT) Temp. Windchill Dew Point Humidity Pressure Visibility Wind Dir Wind Speed Gust Speed Precip Events Conditions
12:53 AM 37.9 °F - 21.9 °F 53% 30.10 in 10.0 mi Calm Calm - N/A   Overcast
1:53 AM 37.9 °F 34.4 °F 21.9 °F 53% 30.08 in 10.0 mi SSE 4.6 mph - N/A   Overcast
2:53 AM 39.0 °F 31.8 °F 21.0 °F 49% 30.04 in 10.0 mi ENE 11.5 mph - N/A   Overcast
3:53 AM 37.9 °F 30.9 °F 23.0 °F 55% 30.03 in 10.0 mi NE 10.4 mph - N/A   Overcast
4:53 AM 37.9 °F 32.1 °F 24.1 °F 57% 30.04 in 10.0 mi East 8.1 mph - N/A   Overcast
5:53 AM 35.1 °F 26.9 °F 27.0 °F 72% 30.04 in 10.0 mi East 11.5 mph - N/A   Overcast
6:53 AM 34.0 °F 23.8 °F 28.0 °F 79% 30.02 in 10.0 mi East 16.1 mph 23.0 mph 0.00 in   Overcast
7:53 AM 34.0 °F 24.2 °F 28.0 °F 79% 30.01 in 10.0 mi East 15.0 mph - N/A   Overcast
8:53 AM 34.0 °F 25.5 °F 28.0 °F 79% 30.01 in 10.0 mi ENE 11.5 mph - N/A   Overcast
9:53 AM 33.1 °F 24.4 °F 28.9 °F 85% 29.98 in 10.0 mi ENE 11.5 mph - N/A   Overcast
10:53 AM 34.0 °F 24.6 °F 28.9 °F 82% 29.96 in 10.0 mi ENE 13.8 mph - N/A   Overcast
11:53 AM 35.1 °F 25.5 °F 28.0 °F 76% 29.94 in 10.0 mi ENE 15.0 mph 21.9 mph N/A   Overcast
12:53 PM 35.1 °F 27.4 °F 27.0 °F 72% 29.94 in 10.0 mi East 10.4 mph - 0.00 in   Overcast
1:53 PM 34.0 °F 26.0 °F 26.1 °F 73% 29.94 in 8.0 mi East 10.4 mph 19.6 mph 0.03 in Rain Light Rain
2:11 PM 33.1 °F 24.4 °F 26.1 °F 75% 29.91 in 2.0 mi ENE 11.5 mph - 0.01 in Snow Light Snow
2:22 PM 32.0 °F 23.0 °F 27.0 °F 82% 29.91 in 1.0 mi East 11.5 mph - 0.05 in Rain Rain
2:29 PM 32.0 °F 21.6 °F 27.0 °F 82% 29.91 in 1.5 mi East 15.0 mph 20.7 mph 0.06 in   Overcast
2:33 PM 32.0 °F 21.6 °F 27.0 °F 82% 29.90 in 3.0 mi ENE 15.0 mph 21.9 mph 0.06 in   Overcast
2:53 PM 32.0 °F 25.6 °F 28.0 °F 85% 29.92 in 10.0 mi ENE 6.9 mph - 0.06 in   Overcast
3:53 PM 33.1 °F 23.9 °F 27.0 °F 78% 29.87 in 10.0 mi ENE 12.7 mph - N/A   Overcast
4:11 PM 33.1 °F 26.1 °F 27.0 °F 78% 29.86 in 10.0 mi ENE 8.1 mph - N/A   Overcast
4:53 PM 32.0 °F 23.0 °F 27.0 °F 82% 29.89 in 4.0 mi ENE 11.5 mph - 0.01 in   Overcast
5:02 PM 32.0 °F 24.2 °F 28.0 °F 85% 29.87 in 3.0 mi ENE 9.2 mph - 0.00 in Rain Light Freezing Rain
5:10 PM 32.0 °F 23.6 °F 28.0 °F 85% 29.88 in 2.5 mi East 10.4 mph - 0.00 in Rain Light Freezing Rain
5:26 PM 32.0 °F 24.2 °F 28.9 °F 88% 29.86 in 3.0 mi ENE 9.2 mph - 0.01 in   Overcast
5:28 PM 32.0 °F 23.6 °F 28.9 °F 88% 29.86 in 2.5 mi NE 10.4 mph - 0.01 in   Overcast
5:39 PM 32.0 °F 24.8 °F 28.9 °F 88% 29.87 in 3.0 mi ENE 8.1 mph - 0.01 in   Overcast
5:53 PM 32.0 °F 24.8 °F 28.9 °F 88% 29.89 in 3.0 mi ENE 8.1 mph - 0.01 in   Overcast
5:55 PM 32.0 °F 24.8 °F 28.9 °F 88% 29.87 in 2.5 mi ENE 8.1 mph - 0.00 in Rain Light Freezing Rain
5:59 PM 32.0 °F 25.6 °F 28.9 °F 88% 29.87 in 2.5 mi ENE 6.9 mph - 0.00 in Snow Light Snow
6:27 PM 32.0 °F 24.8 °F 30.0 °F 92% 29.86 in 4.0 mi ENE 8.1 mph - 0.00 in   Overcast
6:53 PM 32.0 °F 25.6 °F 30.0 °F 92% 29.88 in 3.0 mi NE 6.9 mph - 0.01 in Snow Light Snow
7:00 PM 32.0 °F 23.6 °F 28.9 °F 88% 29.86 in 1.8 mi NE 10.4 mph - 0.00 in Snow Light Snow
7:04 PM 32.0 °F 24.2 °F 28.9 °F 88% 29.85 in 1.0 mi NNE 9.2 mph - 0.01 in Snow Light Snow
7:07 PM 32.0 °F 24.8 °F 30.0 °F 92% 29.86 in 0.8 mi NNE 8.1 mph - 0.01 in Snow Light Snow
7:19 PM 32.0 °F 25.6 °F 30.0 °F 92% 29.87 in 0.5 mi Variable 6.9 mph - 0.02 in Fog , Snow Light Snow
7:24 PM 32.0 °F 25.6 °F 30.0 °F 92% 29.87 in 0.5 mi NNE 6.9 mph - 0.02 in Fog , Snow Light Snow
7:37 PM 32.0 °F 24.8 °F 30.0 °F 92% 29.85 in 1.0 mi NNE 8.1 mph - 0.03 in Snow Light Snow
7:41 PM 32.0 °F 23.0 °F 30.0 °F 92% 29.85 in 1.5 mi NNE 11.5 mph - 0.03 in Snow Light Snow
7:49 PM 32.0 °F 24.2 °F 30.2 °F 93% 29.85 in 2.5 mi NNE 9.2 mph - 0.03 in Snow Light Snow
7:53 PM 32.0 °F 24.2 °F 30.0 °F 92% 29.87 in 2.0 mi NNE 9.2 mph - 0.03 in Snow Light Snow
8:01 PM 32.0 °F 23.0 °F 30.0 °F 92% 29.84 in 1.8 mi NNE 11.5 mph - 0.00 in Snow Light Snow
8:20 PM 32.0 °F 23.6 °F 30.0 °F 92% 29.84 in 1.2 mi NNE 10.4 mph - 0.01 in Snow Light Snow
8:33 PM 32.0 °F 24.2 °F 28.9 °F 88% 29.84 in 1.0 mi NNE 9.2 mph - 0.02 in Snow Light Snow
8:41 PM 30.9 °F 22.8 °F 30.0 °F 96% 29.84 in 0.5 mi NNE 9.2 mph - 0.04 in Fog , Snow Snow
8:53 PM 30.9 °F 24.3 °F 30.0 °F 96% 29.88 in 0.8 mi NNE 6.9 mph - 0.05 in Snow Light Snow
8:55 PM 30.9 °F 24.3 °F 30.0 °F 96% 29.86 in 1.0 mi NE 6.9 mph - 0.01 in Snow Light Snow
9:09 PM 30.9 °F 24.3 °F 30.0 °F 96% 29.84 in 1.0 mi NNE 6.9 mph - 0.03 in Snow Light Snow
9:25 PM 30.9 °F 21.7 °F 30.0 °F 96% 29.82 in 0.5 mi NNE 11.5 mph - 0.05 in Fog , Snow Snow
9:50 PM 30.2 °F 20.8 °F 30.2 °F 100% 29.81 in 0.8 mi NNE 11.5 mph - 0.07 in Snow Light Snow
10:53 PM 30.0 °F 23.2 °F 28.0 °F 92% 29.83 in 1.0 mi North 6.9 mph - 0.07 in Snow Light Snow
11:04 PM 30.0 °F 23.2 °F 28.9 °F 96% 29.81 in 1.2 mi North 6.9 mph - 0.01 in Snow Light Snow
11:10 PM 30.0 °F 25.2 °F 28.0 °F 92% 29.81 in 0.8 mi North 4.6 mph - 0.02 in Snow Light Snow
11:19 PM 30.0 °F 21.7 °F 28.0 °F 92% 29.80 in 0.8 mi North 9.2 mph - 0.03 in Snow Light Snow
11:39 PM 28.9 °F 21.9 °F 28.0 °F 96% 29.79 in 1.0 mi North 6.9 mph - 0.05 in Snow Light Snow
11:53 PM 28.9 °F 21.9 °F 28.0 °F 96% 29.82 in 1.0 mi Variable 6.9 mph - 0.06 in Snow Light Snow